Flag for Panama Weather past 2 weeks in Panama, Panama

Now
75 °F

Partly cloudy.


Feels Like: 75 °F
Forecast: 77 / 82 °F
Wind: 5 mph from West

Location: Panama Airport

Current Time: Aug 23, 2014 at 5:33:38 AM

Latest Report: Aug 23, 2014 at 5:00 AM


Visibility: N/A

Pressure: 29.80 "Hg

Humidity: 89%

Dew point: 72 °F

Location of PanamaLocation

Historic Weather in Panama — Graph

°F

Panama temperature yesterday

Maximum temperature yesterday: 88 °F (at 12:00 PM)
Minimum temperature yesterday: 77 °F (at 3:00 AM)
Average temperature yesterday: 80 °F

Past Weeks' High & Low Weather Summary

 TemperatureHumidityPressure
High93 °F (Aug 15, 3:00 PM)100% (Aug 16, 7:00 AM)29.98 "Hg (Aug 16, 7:00 AM)
Low73 °F (Aug 8, 4:00 AM)52% (Aug 14, 1:00 PM)29.71 "Hg (Aug 14, 5:00 PM)
Average81 °F83%29.83 "Hg
* Reported Aug 8 4:00 AM — Aug 23 4:00 AM, Panama, Weather by CustomWeather, © 2014

Note: Actual official high and low records may vary slightly from our data, if they occured in-between our weather recording intervals... More about our weather records

Advertising

Panama weather history for previous 24 hours

 ConditionsComfort  
Time TempWeatherWind HumidityBarometerVisibility
4:00 AM
Aug 23
77 °FPartly cloudy.5 mph89%29.86 "HgN/A
3:00 AM77 °FPartly cloudy.No wind94%29.80 "Hg6 mi
2:00 AM77 °FLight rain. Partly cloudy.No wind94%29.86 "Hg5 mi
1:00 AM79 °FLight rain. Partly cloudy.5 mph84%29.86 "Hg4 mi
12:00 AM79 °FPartly cloudy.No wind89%29.86 "HgN/A
11:00 PM
Aug 22
79 °FPartly cloudy.8 mph89%29.86 "HgN/A
10:00 PM79 °FPartly cloudy.6 mph89%29.86 "HgN/A
9:00 PM79 °FPassing clouds.6 mph89%29.83 "HgN/A
8:00 PM81 °FPartly cloudy.9 mph84%29.83 "HgN/A
7:00 PM81 °FPartly cloudy.7 mph84%29.80 "HgN/A
5:00 PM81 °FScattered clouds.5 mph89%29.77 "Hg6 mi
4:00 PM81 °FLight rain. Broken clouds.6 mph89%29.77 "Hg5 mi
3:00 PM79 °FScattered showers. Broken clouds.5 mph89%29.86 "Hg6 mi
2:00 PM81 °FLight rain. Broken clouds.7 mph84%29.86 "Hg4 mi
1:00 PM86 °FBroken clouds.3 mph70%29.86 "HgN/A
12:00 PM88 °FBroken clouds.3 mph66%29.86 "HgN/A
10:00 AM82 °FBroken clouds.3 mph79%29.89 "HgN/A
9:00 AM81 °FBroken clouds.5 mph84%29.86 "HgN/A
8:00 AM81 °FBroken clouds.5 mph84%29.86 "HgN/A
7:00 AM79 °FScattered clouds.3 mph84%29.86 "Hg6 mi
6:00 AM79 °FPassing clouds.7 mph84%29.83 "Hg5 mi
5:00 AM77 °FPassing clouds.6 mph89%29.83 "HgN/A
Weather by CustomWeather, © 2014

See weather overviewHow to use our weather pages